STARLINK-1943

Last updated on Tue Nov 24 2020 00:02:03 GMT+0000 (Coordinated Universal Time)

1 46795U 20074BJ 20328.58334491 -.00177977 00000-0 -19737-2 0 9995 2 46795 53.0547 13.4307 0001503 53.5397 3.0386 15.62843309 1851

Satellite not in orbit

STARLINK-1943